Screenshot 2020-03-10 at 16.31.56

Aviation Academy

Online Aviation Academy is a modern learning system, bundled with key enterprise functionality ranging from skill-gap analysis and branch management to tailor-made reports. Our unique TCExam is a system for electronic exams (also know as CBA – Computer-Based Assessment, CBT – Computer-Based Testing or e-exam) that enables educators and trainers to  deliver, and report on quizzes, tests and exams.

Koos Myburgh’s book has become a popular training tool for many helicopter pilots starting out on their aviation path. The book is detailed and informative.

About the author

He joined the South African Air Force as a pupil pilot in 1979. Completed training on Harvards and the Alouette III; received his Wings in 1981.
During his 18 year Air Force career he also flew the Puma, Oryx (Super Puma) and the Dauphin. He gave instruction on all the types. He qualified as a NVIS instructor, as well.
After his resignation, he was employed as CFI at Helicopters Unlimited and later as Director Training at the Starlite Aviation Group.
Since his qualification as Instructor during 1988, he gathered 8000 hours of instruction and a total of 12600 hours.
He holds ratings on 32 types/variants of aircraft and was appointed as a SACAA Designated Flight Examiner in 2012.

ONLINE LEARNING

Don’t just read about it, Learn about it…

Let us help you reach the sky.

Durban FALE METAR & TAF

FALE 210600Z 31005KT 280V350 9999 FEW047 25/20 Q1018 NOSIG

TAF FALE 210400Z 2106/2212 24005KT 9999 BKN030 TX26/2112Z TN21/2203Z BECMG 2110/2112 03012KT SCT030 BECMG 2120/2122 01005KT BECMG 2208/2210 04015KT

George FAGG METAR & TAF

FAGG 210600Z 28004KT 260V320 0500 R29/0500N FG VV001 16/16 Q1014

TAF TAF FAGG 210400Z 2106/2206 15008KT 9999 FEW020 TX27/2112Z TN16/2204Z PROB30 TEMPO 2106/2107 4500 BR BKN003 PROB30 TEMPO 2116/2124 BKN008

error: NO! Content is protected !!
Scroll to Top